Location: Boulin
(43.2500°N, 0.1333°E)
Time: 00:46:06
(UTC+00:00)

MOS 1 Rocket - Pass Details

Date: 11 December 2025
Orbit: 609 x 814 km, 97.4° (Epoch: 19 January)

Event Time Altitude Azimuth Distance (km) Brightness Sun altitude
Rises 17:09:24 0° 145° (SE) 3,098 6.5 -8.2°
Reaches altitude 10° 17:11:42 10° 138° (SE) 2,215 5.7 -8.5°
Maximum altitude 17:16:16 40° 70° (ENE) 1,099 3.9 -9.3°
Drops below altitude 10° 17:21:05 10° 2° (N) 2,344 5.8 -10.1°
Sets 17:23:34 0° 355° (N) 3,300 6.6 -10.5°
